#timestamp,LO_Frequency,Hit,StdDev 
1548345615.1,286047000.7,N
1548345635.9,286047000.2,N
1548345655.7,286047000.8,N
1548345675.5,286046998.4,N
1548345695.4,286046998.5,N
1548345715.2,286047001.2,N
1548345735.1,286047000.4,N
1548345736.0,286047000.4,N
1548345755.8,286047000.4,N
1548345775.6,286047002.8,N
1548345795.5,286046999.9,N
1548345815.3,286046998.5,N
1548345835.1,286046999.0,N
1548345855.9,286047000.8,N
1548345875.7,286046998.9,N
1548345895.6,286047001.2,N
1548345915.4,286046998.2,N
1548345935.2,286046999.2,N
1548345955.1,286047001.1,N
1548345956.0,286047001.1,N
1548345975.8,286047002.7,N
1548345995.6,286046998.3,N
1548346015.5,286046998.4,N
1548346035.3,286046999.9,N
1548346055.2,286047000.0,N
1548346075.9,286047000.3,N
1548346095.7,286047002.1,N
1548346115.6,286047002.1,N
1548346135.4,286047002.1,N
1548346155.2,286047002.2,N
1548346175.1,286047000.1,N
1548346176.0,286047000.1,N
1548346195.8,286047002.4,N
1548346215.7,286047000.5,N
1548346235.5,286046998.9,N
1548346255.3,286046998.3,N
1548346275.2,286047002.8,N
1548346295.0,286047001.0,N
1548346295.9,286047001.0,N
1548346315.8,286047000.8,N
1548346335.6,286046999.0,N
1548346355.4,286046998.6,N
1548346375.3,286046999.6,N
1548346395.1,286046996.5,N
1548346415.9,286046998.4,N
1548346435.7,286046998.5,N
1548346455.5,286046997.4,N
1548346475.4,286046996.5,N
1548346495.2,286047001.1,N
1548346515.0,286046999.5,N
1548346515.9,286046999.5,N
1548346535.8,286046997.7,N
1548346555.6,286046996.9,N
1548346575.5,286046998.4,N
1548346595.3,286046998.6,N
1548346615.1,286047000.9,N
1548346635.9,286046999.9,N
1548346655.7,286047002.4,N
1548346675.5,286047000.1,N
1548346695.4,286047000.9,N
1548346715.2,286047000.1,N
1548346735.1,286047001.8,N
1548346736.0,286047001.8,N
1548346755.8,286047001.3,N
1548346775.6,286047001.4,N
1548346795.5,286047004.4,N
1548346815.3,286046999.9,N
1548346835.1,286047000.3,N
1548346855.9,286047002.8,N
1548346875.7,286047000.0,N
1548346895.6,286047000.7,N
1548346915.4,286046999.5,N
1548346935.2,286047001.0,N
1548346955.1,286046999.8,N
1548346956.0,286046999.8,N
1548346975.8,286047002.4,N
1548346995.6,286047000.5,N
1548347015.5,286047000.4,N
1548347035.3,286047001.0,N
1548347055.2,286046999.3,N
1548347075.9,286047001.2,N
1548347095.7,286046999.3,N
1548347115.6,286046998.3,N
1548347135.4,286046998.2,N
1548347155.2,286046998.6,N
1548347175.1,286046999.2,N
1548347176.0,286046999.2,N
1548347195.8,286047000.7,N
1548347215.7,286047000.7,N
1548347235.5,286046998.3,N
1548347255.3,286046999.8,N
1548347275.2,286047002.4,N
1548347295.0,286047002.6,N
1548347295.9,286047002.6,N
1548347315.7,286047000.2,N
1548347335.6,286046999.7,N
1548347355.4,286046998.3,N
1548347375.3,286047000.3,N
1548347395.1,286047000.9,N
1548347396.0,286047000.9,N
1548347415.8,286047000.5,N
1548347435.7,286046998.4,N
1548347455.5,286046998.1,N
1548347475.4,286046997.0,N
1548347495.2,286046996.9,N
1548347515.0,286046999.3,N
1548347515.9,286046999.3,N
1548347535.8,286046999.3,N
1548347555.6,286046998.5,N
1548347575.4,286047001.1,N
1548347595.3,286046997.0,N
1548347615.1,286046999.2,N
1548347635.9,286046998.5,N
1548347655.7,286047001.1,N
1548347675.5,286047000.0,N
1548347695.4,286046998.6,N
1548347715.5,286047000.1,N
1548347735.3,286046999.7,N
1548347755.2,286047002.2,N
1548347775.9,286047002.4,N
1548347795.7,286047002.1,N
1548347815.6,286047002.0,N
1548347835.4,286047002.8,N
1548347855.2,286047002.8,N
1548347875.1,286046999.7,N
1548347876.0,286046999.7,N
1548347895.8,286047000.9,N
1548347915.7,286047000.6,N
1548347935.5,286046999.7,N
1548347955.3,286047000.5,N
1548347975.2,286047000.2,N
1548347995.0,286047002.5,N
1548347995.9,286047002.5,N
1548348015.7,286047002.8,N
1548348035.6,286047002.6,N
1548348055.4,286047001.7,N
1548348075.3,286047001.4,N
1548348095.1,286047001.4,N
1548348115.2,286047004.4,N
1548348135.9,286047001.3,N
1548348155.7,286047001.7,N
1548348175.6,286047004.0,N
1548348195.4,286047004.2,N
1548348215.2,286047001.7,N
1548348235.1,286047001.0,N
1548348236.0,286047001.0,N
1548348255.8,286047000.5,N
1548348275.7,286047000.9,N
1548348295.5,286047000.9,N
1548348315.3,286046998.6,N
1548348335.2,286046998.6,N
1548348355.0,286046999.4,N
1548348355.9,286046999.4,N
1548348375.7,286046998.3,N
1548348395.6,286046998.6,N
1548348415.4,286046998.2,N
1548348435.3,286047000.9,N
1548348455.1,286047000.9,N
1548348475.8,286046999.0,N
1548348495.7,286047000.8,N
1548348515.5,286047000.9,N
1548348535.4,286046996.9,N
1548348555.2,286046999.6,N
1548348575.0,286046996.9,N
1548348575.9,286046996.9,N
1548348595.8,286046996.9,N
1548348615.6,286046997.3,N
1548348635.4,286046996.8,N
1548348655.3,286046997.9,N
1548348675.1,286046995.1,N
1548348695.9,286046996.2,N
1548348715.7,286046993.8,N
1548348735.5,286046994.4,N
1548348755.4,286046991.8,Y
1548348775.2,286046995.0,P
1548348795.1,286046996.1,N
1548348796.0,286046996.1,N
1548348815.8,286046996.0,Y
1548348835.6,286046998.9,P
1548348855.5,286046999.2,N
1548348875.3,286046998.5,N
1548348895.1,286046998.7,N
1548348915.9,286046998.6,N
1548348935.7,286046998.3,N
1548348955.6,286046996.6,Y
1548348975.4,286046998.6,P
1548348995.2,286046998.6,P
1548349015.1,286046998.7,P
1548349016.0,286046998.7,Y
1548349035.8,286047000.5,P
1548349055.7,286046998.4,N
1548349075.5,286046999.8,N
1548349095.4,286046999.8,N
1548349115.2,286046998.9,N
1548349135.0,286046998.3,N
1548349135.9,286046998.3,N
1548349155.8,286046998.5,N
1548349175.6,286046999.0,N
1548349195.4,286046998.9,N
